Wind_Speed
22 22 21 20 18 16 15 15 14 13 12 13 13 13 13 13 12 11 10 10 10 11 12 13 13 13 13 13 13 13 13 13 13 13 14 16 17 18 20 21 21 22 21 21 22 22 22 22 22 23 24 25 26 28 29 31 32 33 35 35 37 38 39 40 42 40 37 36 37 35 35 35 33 33 34 34 34 35 37 38 39 39 38 37 37
21 21 20 19 18 17 17 16 15 14 15 15 15 15 14 14 14 13 12 12 12 13 14 14 14 14 13 13 13 13 13 13 12 13 14 15 16 17 19 20 20 20 21 21 21 22 22 22 23 24 25 27 28 30 31 32 33 34 35 36 37 38 39 40 41 42 40 38 38 38 37 37 37 36 36 36 35 34 35 37 38 39 40 39 38
20 19 18 18 17 16 16 15 15 16 16 16 16 16 15 15 15 15 14 14 14 14 14 14 14 14 14 13 13 13 12 12 12 13 14 14 15 16 18 19 19 20 20 20 21 21 22 22 24 25 26 28 29 31 32 33 34 35 35 36 37 37 38 39 40 41 42 41 39 39 39 38 38 38 38 39 38 36 35 36 36 37 39 41 41
18 17 17 16 16 16 16 16 16 17 17 17 16 16 15 15 16 16 16 15 15 15 14 15 15 14 13 13 12 12 12 12 12 12 13 14 14 15 16 17 18 19 20 20 20 21 22 23 24 26 27 29 30 31 32 33 34 34 34 34 35 36 36 36 38 39 41 41 40 40 40 39 39 38 39 40 39 38 37 36 36 36 37 39 41
17 17 16 16 16 16 16 16 17 18 17 17 17 16 16 16 17 17 16 16 15 14 14 14 14 13 13 12 12 11 11 11 12 12 12 13 13 14 16 17 18 19 19 20 20 21 22 23 24 26 27 28 30 31 32 32 32 32 32 33 33 33 34 35 36 38 39 40 40 39 39 39 39 38 38 39 39 38 36 34 34 35 36 37 39
17 17 16 16 16 16 17 17 17 17 17 17 17 16 17 17 17 17 16 15 14 14 14 14 13 13 12 12 11 11 11 11 11 11 12 12 13 14 15 17 18 18 19 20 21 21 22 23 25 26 27 28 29 31 31 31 31 31 31 32 32 33 35 36 37 39 39 40 40 39 37 37 37 36 36 37 39 39 37 35 32 31 33 35 35
17 16 16 16 17 17 17 16 16 16 15 15 15 15 16 16 16 16 15 14 14 14 14 13 13 12 12 11 11 10 11 11 10 10 11 12 13 14 15 17 18 18 19 20 21 22 23 24 25 26 28 29 29 30 30 30 30 31 32 33 35 36 38 39 40 41 41 41 41 39 37 35 35 35 35 35 36 37 37 38 35 31 31 33 34
16 16 15 16 16 15 15 14 13 13 13 13 13 13 14 14 14 14 14 13 13 13 13 13 13 12 11 10 10 10 10 10 9 9 10 11 13 14 15 16 17 18 19 20 21 22 23 24 26 27 28 29 30 30 30 31 32 33 35 36 38 39 40 42 43 43 44 43 42 40 38 35 34 35 35 36 35 33 33 35 36 33 31 30 31
16 15 15 14 14 13 13 12 11 11 12 13 13 13 13 13 13 13 13 13 13 13 13 13 12 12 11 10 10 9 9 8 8 9 10 11 12 14 15 15 16 17 18 20 21 22 24 25 27 28 28 29 29 30 32 33 34 36 37 38 39 41 42 43 44 45 45 45 44 42 40 38 37 37 37 37 37 35 34 33 33 32 31 30 28
17 16 16 15 14 13 12 11 11 11 12 13 14 13 12 12 12 12 12 12 12 12 13 12 12 11 11 10 9 8 7 7 7 8 10 11 12 13 14 15 16 17 18 19 20 22 23 25 25 26 27 28 29 30 31 33 34 36 37 39 40 41 43 44 45 46 46 46 45 44 42 41 41 41 41 41 40 39 39 38 36 33 31 30 27
18 18 17 15 14 13 12 11 10 10 11 12 13 13 12 12 12 11 11 12 12 13 13 12 12 11 10 9 8 6 6 6 7 8 10 11 12 12 13 14 15 16 17 18 20 22 22 23 23 24 25 26 28 29 30 31 33 34 36 37 39 41 42 44 45 46 46 46 45 45 45 44 44 44 44 44 44 43 43 42 40 37 33 30 26
21 20 19 17 15 14 13 11 10 10 10 11 12 12 11 11 11 11 12 12 13 13 13 12 11 10 9 8 7 5 5 5 7 9 10 10 11 11 12 14 14 15 17 18 20 21 21 21 22 22 24 25 26 27 28 30 31 33 34 35 37 39 40 42 44 46 47 47 47 47 47 47 47 46 46 46 46 45 45 43 40 36 31 28 26
23 23 22 19 16 15 13 12 10 10 10 11 12 11 11 11 12 12 12 12 12 12 12 11 10 9 8 7 5 4 5 5 7 8 9 9 10 11 12 13 14 16 17 18 19 19 20 20 21 22 24 24 25 26 27 29 30 31 33 34 35 37 39 41 43 45 46 47 48 49 49 48 48 47 46 46 46 46 46 45 41 35 30 28 28
24 25 24 21 18 16 14 12 11 10 11 12 12 11 11 12 13 13 12 12 12 12 11 10 9 8 7 6 5 4 5 6 7 8 8 9 9 10 11 12 14 16 17 17 18 18 19 20 21 22 23 24 24 25 26 27 29 31 32 34 35 37 38 40 42 44 45 46 47 48 48 47 47 46 44 44 44 45 45 45 41 34 30 30 31
26 25 25 23 19 16 13 12 11 10 11 12 12 11 12 13 13 12 12 12 12 11 11 9 8 7 7 6 5 5 5 6 7 7 7 8 9 9 11 12 14 15 16 17 18 18 19 20 21 22 23 24 24 25 26 27 28 30 32 33 35 37 38 40 42 43 45 45 46 47 46 45 44 44 43 42 42 42 41 40 38 33 30 30 31
26 25 25 21 17 14 13 11 10 11 12 12 12 12 12 13 13 12 12 12 12 11 10 9 8 7 6 5 5 5 6 6 7 7 7 7 8 9 11 12 14 15 15 16 17 18 19 20 21 22 23 23 24 24 26 27 28 30 32 33 34 36 37 39 41 42 43 43 44 45 44 43 42 41 41 41 41 41 39 37 34 30 28 28 28
27 26 24 19 15 13 12 11 11 12 13 13 12 12 12 13 13 12 12 12 12 11 10 9 8 7 6 5 5 6 6 6 6 6 6 6 7 9 11 12 13 14 14 15 17 18 19 20 21 22 22 23 23 25 26 27 28 30 32 33 34 35 36 38 39 40 41 41 42 42 43 42 41 41 42 42 42 43 42 41 37 32 29 28 28
28 26 22 16 13 12 11 11 12 13 14 14 13 13 13 13 13 13 13 13 12 10 9 8 8 7 6 6 6 6 5 5 5 5 6 6 8 9 10 11 12 13 14 16 17 18 19 20 21 22 22 22 23 25 27 28 29 31 32 34 34 36 37 38 39 40 40 40 41 41 42 43 43 43 43 43 44 45 46 46 42 37 35 32 31
24 24 21 18 14 12 11 13 15 15 15 15 14 14 13 13 13 13 13 12 11 10 9 8 8 7 6 6 5 5 5 4 4 5 5 7 8 9 10 10 12 13 15 16 16 17 19 19 20 21 21 22 24 26 28 29 30 32 33 34 35 37 39 40 40 41 41 42 43 43 43 45 45 45 44 44 44 46 46 45 41 39 37 34 32
20 21 20 19 16 13 14 16 17 17 16 15 14 14 14 14 14 13 13 12 11 10 9 8 7 7 6 5 5 5 4 3 4 4 5 6 7 8 9 10 12 13 14 15 16 17 18 18 19 20 21 23 24 26 28 30 31 32 34 35 37 38 39 39 40 41 42 43 44 44 45 45 46 46 46 44 45 46 45 43 40 38 37 32 28
17 17 18 18 16 16 17 18 18 17 16 15 15 15 15 15 14 13 13 12 11 10 9 8 7 6 6 5 5 4 3 2 3 4 5 5 6 7 9 10 12 12 13 14 15 16 17 17 18 20 21 23 25 26 28 29 31 32 33 36 37 38 38 39 39 40 41 42 43 45 46 47 47 48 48 46 45 46 44 43 41 39 37 31 26
14 16 18 18 17 18 19 20 19 17 16 16 16 16 16 15 14 14 13 12 11 10 9 8 7 6 5 5 4 3 2 1 2 3 3 4 5 7 9 10 11 11 12 13 14 15 16 17 18 20 21 23 25 26 27 28 29 31 32 34 35 36 37 38 39 40 41 42 43 45 47 48 49 49 49 48 47 46 44 43 42 40 38 34 28
14 16 19 20 19 19 20 19 17 16 16 16 17 17 15 14 14 14 14 13 11 10 9 7 6 6 5 4 3 2 1 0 1 2 3 4 5 7 9 9 10 10 11 12 13 14 15 16 18 20 21 23 25 26 27 28 29 30 31 32 33 34 36 37 38 40 41 42 43 45 47 49 49 50 50 50 48 46 46 45 43 40 39 37 34
16 17 20 22 21 20 19 18 17 17 17 18 17 16 15 15 15 15 14 13 11 9 8 7 6 6 5 4 3 2 2 1 1 2 3 4 6 7 8 9 9 9 10 11 12 13 15 16 17 19 21 22 24 25 26 27 28 30 31 32 33 33 34 36 38 39 41 42 44 45 46 48 49 49 50 50 49 46 45 44 43 40 38 37 37
17 18 21 23 22 21 20 19 19 19 18 18 16 15 16 17 16 15 14 12 10 8 7 7 7 6 5 5 4 3 3 2 2 2 3 4 5 7 8 8 8 8 10 11 12 12 14 15 17 19 20 21 22 24 25 26 28 29 30 31 32 33 34 36 37 39 40 42 43 44 45 46 47 47 47 47 47 46 45 43 42 40 39 37 37
17 19 22 23 22 21 21 20 20 20 19 18 17 17 18 18 16 15 13 11 9 8 7 7 7 7 6 6 5 4 4 3 3 3 4 4 6 7 8 8 7 8 9 10 11 12 14 15 17 18 19 20 21 22 23 25 26 28 29 30 31 33 34 35 37 38 39 41 42 43 43 44 44 44 45 45 46 47 47 45 42 41 41 40 38
19 20 22 23 23 22 21 20 20 19 19 18 19 19 19 19 17 14 12 10 8 8 8 8 8 8 7 7 6 6 5 4 4 4 4 5 5 7 7 7 6 7 8 9 10 12 13 15 16 17 19 20 21 22 23 24 24 26 27 28 30 32 33 35 36 37 38 39 40 40 41 41 41 42 43 45 45 46 47 46 45 43 42 40 39
19 22 24 24 23 21 21 20 20 19 19 19 19 19 19 18 17 14 12 10 10 9 9 10 10 9 8 8 7 7 6 5 5 5 5 5 5 6 6 5 5 6 7 9 10 11 12 14 15 17 18 20 21 22 22 23 24 25 26 27 28 29 31 32 33 34 36 37 37 38 38 39 40 41 42 43 44 45 45 45 45 44 42 40 40
22 25 26 24 23 22 21 21 20 19 18 18 19 19 19 18 16 15 13 12 11 11 11 12 11 10 10 9 8 7 6 6 6 5 5 5 4 4 4 4 4 5 6 8 9 10 12 13 15 16 17 18 20 21 22 23 24 25 25 26 27 27 28 30 31 32 34 35 36 37 37 38 39 40 41 42 42 43 43 43 43 43 42 42 41
26 27 26 24 23 22 22 21 20 19 18 18 19 20 20 19 17 16 14 13 12 12 12 13 12 10 10 10 9 8 7 6 6 6 6 5 4 3 3 3 3 5 6 7 9 10 12 13 15 16 17 18 19 20 22 23 24 25 25 26 26 27 28 29 30 31 33 34 35 36 36 37 38 38 39 40 40 41 41 42 42 42 42 42 41
26 26 25 24 23 22 21 20 19 19 19 19 20 19 19 18 17 16 14 13 13 13 13 13 12 11 10 10 9 9 8 7 7 7 6 4 3 2 1 2 3 5 6 7 9 10 12 14 15 17 18 19 20 21 22 23 24 25 25 26 26 27 27 28 28 29 31 32 33 34 35 36 36 37 37 38 38 39 39 39 40 40 41 41 40
25 23 23 23 23 22 21 20 19 20 20 21 21 20 20 18 16 14 13 14 14 14 14 13 12 12 11 10 10 9 9 8 8 7 6 4 3 2 1 2 4 6 8 9 10 11 13 15 16 18 19 20 21 21 22 23 24 25 25 26 26 27 27 28 28 29 29 30 31 32 33 34 35 36 36 36 36 37 37 38 38 39 39 39 38
23 22 22 23 22 22 21 20 20 21 21 22 22 21 20 17 15 14 14 14 14 14 14 13 12 12 11 11 11 11 10 9 8 7 6 5 3 3 3 4 5 7 9 10 11 12 14 16 17 19 20 20 21 22 23 24 24 25 25 26 26 27 27 27 28 28 28 28 29 30 31 32 33 33 34 35 35 35 35 36 37 37 37 37 37
22 22 22 22 21 21 21 21 21 22 23 24 23 22 20 18 17 16 15 14 14 13 13 12 11 11 11 11 11 11 10 10 9 7 6 5 4 4 4 5 7 8 10 12 13 14 15 17 18 20 20 21 22 23 23 24 25 25 26 26 26 26 27 26 26 27 27 27 27 28 28 30 31 31 32 33 33 34 34 34 35 36 36 36 36
22 23 23 22 21 21 21 22 23 24 25 25 23 22 20 18 17 17 17 16 15 14 13 12 11 11 11 11 11 11 11 10 9 8 7 6 5 5 6 7 8 10 12 13 14 15 16 18 19 21 21 22 23 23 24 25 25 25 26 26 26 26 26 26 26 26 26 26 26 26 26 27 28 29 30 31 31 32 32 32 33 34 34 35 35
23 23 23 22 21 22 22 23 25 26 26 25 24 22 20 18 18 18 17 17 16 14 13 12 12 11 11 11 11 11 11 10 9 8 7 7 7 7 7 8 10 12 13 15 16 16 17 18 20 21 22 23 24 25 25 25 26 26 27 27 27 27 26 26 26 25 25 25 25 25 25 25 25 26 27 28 29 29 30 30 31 31 31 32 33
23 22 22 21 22 23 24 25 27 28 28 27 25 22 20 19 19 18 17 16 15 14 13 12 12 12 12 12 12 12 11 10 9 8 8 8 8 8 8 10 11 13 15 16 17 17 18 19 20 22 23 24 25 26 27 27 27 27 27 27 28 28 27 27 26 26 25 25 24 24 24 24 24 24 24 25 26 27 27 27 28 28 28 28 29
22 22 21 22 23 25 26 28 29 30 29 27 25 22 20 20 19 19 18 16 15 13 13 13 12 12 12 12 12 11 10 10 9 8 8 9 9 10 10 11 13 15 16 17 18 18 19 20 21 23 24 25 27 27 28 28 28 28 28 27 27 27 28 28 27 27 26 25 25 24 23 23 23 23 23 23 23 24 25 25 25 26 26 26 26
22 22 21 23 25 26 27 30 31 31 29 27 24 22 21 21 20 19 18 16 14 14 13 13 13 13 12 12 11 11 10 10 9 9 10 10 11 11 12 13 15 16 17 18 18 19 19 21 22 24 25 26 28 29 29 29 28 28 27 27 26 26 26 26 26 27 26 25 25 24 23 23 22 22 22 22 21 22 22 23 23 23 24 24 24
22 22 22 24 26 27 29 31 32 30 28 26 23 22 22 21 20 19 17 15 14 14 13 13 12 12 12 12 11 11 11 11 11 11 11 12 12 12 13 15 16 18 18 19 19 20 20 21 22 24 26 28 28 29 28 27 26 26 25 25 25 25 25 25 26 26 26 26 25 25 24 24 23 22 22 21 21 21 21 21 21 21 22 22 23
22 22 23 25 27 29 32 33 32 30 28 25 23 22 22 21 20 19 17 16 15 14 14 13 13 13 12 12 12 12 12 12 12 13 13 13 13 14 15 16 18 19 19 20 20 20 21 22 23 25 25 25 26 26 26 25 25 24 24 25 25 25 25 25 25 26 26 26 26 25 24 24 24 24 23 21 21 20 20 20 20 20 20 20 20
23 23 23 25 28 30 32 32 30 28 26 24 22 22 22 22 20 19 17 17 16 15 14 14 13 13 13 13 13 13 13 13 13 14 15 15 15 15 16 17 18 19 19 20 20 21 22 22 22 22 21 21 21 21 22 22 22 23 23 24 25 25 26 26 25 25 26 26 26 26 25 24 24 24 24 23 22 21 20 19 19 19 19 19 18
24 23 23 24 26 29 30 30 28 27 25 23 22 22 22 21 20 19 18 17 16 15 15 15 15 15 14 14 14 14 14 14 15 16 16 16 16 17 18 19 19 20 20 21 21 22 22 21 20 18 18 18 18 18 19 20 21 23 24 25 26 26 27 27 27 27 26 26 26 26 25 25 24 24 24 24 23 22 22 21 20 19 19 19 18
23 22 22 24 26 28 30 30 29 28 25 23 23 23 23 22 22 21 20 19 17 16 16 16 17 16 16 15 15 15 15 16 16 17 17 17 18 18 19 20 20 21 22 22 23 23 22 20 18 17 16 16 17 17 19 20 22 24 26 28 29 29 29 29 29 28 27 26 26 25 25 25 25 25 24 24 24 23 23 22 21 21 20 19 19
23 22 22 24 26 28 29 29 28 27 25 24 24 24 23 23 22 21 20 18 17 16 16 16 16 16 16 16 16 16 16 16 17 17 18 18 19 19 20 20 21 22 23 24 23 22 20 19 17 16 16 16 17 18 19 21 22 24 27 30 31 32 32 31 30 29 27 26 27 27 26 25 25 25 25 24 24 23 23 23 22 22 22 21 20
22 21 22 23 25 27 28 27 27 26 25 24 24 24 23 22 21 20 18 18 17 17 17 17 17 17 17 16 16 16 16 16 17 17 18 19 19 20 20 21 22 23 23 23 22 21 20 19 18 17 17 17 18 19 20 21 22 24 27 29 31 32 32 32 31 29 27 25 26 27 27 26 24 24 23 23 23 23 23 23 23 23 22 22 22
21 20 20 21 23 24 25 25 25 25 24 24 24 23 22 21 20 19 18 18 18 18 17 17 17 17 17 17 17 16 16 16 17 18 18 19 19 20 21 22 22 23 23 22 21 20 20 19 19 20 20 21 21 21 22 22 22 24 26 28 30 31 31 31 29 27 25 24 25 26 25 24 22 22 22 22 22 22 23 23 23 23 23 23 23
21 20 21 21 22 23 24 24 24 24 24 24 24 23 22 21 20 20 20 20 19 19 18 18 18 18 18 18 17 17 16 17 18 18 19 19 20 21 21 22 22 23 23 22 20 20 19 19 19 21 22 24 24 24 24 23 23 23 24 26 28 29 29 29 27 24 23 22 22 21 21 20 20 21 22 22 22 23 23 23 23 24 24 24 24
23 23 23 23 23 24 25 24 24 24 25 25 25 25 24 22 21 21 21 21 20 19 19 19 18 18 18 18 18 17 17 18 18 19 20 20 21 21 21 21 22 22 22 21 20 19 19 19 20 21 23 24 25 25 26 26 25 23 22 23 25 26 27 26 24 22 20 19 19 18 19 19 20 21 22 23 23 24 24 24 24 24 25 25 25
25 24 24 24 24 24 25 25 25 26 27 27 27 26 25 24 23 22 21 21 21 20 20 19 19 18 19 18 18 18 18 18 19 19 20 21 22 22 21 21 21 21 20 20 19 19 19 19 20 21 22 24 25 25 27 27 26 24 23 22 23 24 25 24 23 21 20 20 19 19 20 21 21 22 22 23 24 24 24 24 25 25 25 26 26
25 22 22 23 24 25 26 26 26 27 28 28 27 27 26 25 24 23 22 22 22 22 21 21 20 20 20 19 19 18 18 19 19 20 21 21 22 22 22 21 20 20 19 19 19 20 20 20 21 22 23 25 26 27 27 28 27 26 24 24 24 24 25 25 25 24 24 25 25 25 25 25 25 25 24 24 25 26 26 26 26 26 27 27 27
Wind_Direction
196 199 203 208 219 230 236 238 240 245 249 252 255 259 263 268 275 283 289 291 288 283 282 283 285 289 288 286 284 285 291 299 307 313 317 321 324 324 323 322 322 323 326 328 330 331 331 332 332 334 334 335 336 336 336 336 335 334 333 331 330 328 327 326 324 325 325 323 321 319 315 311 307 302 297 292 288 285 284 283 281 278 275 270 266
201 205 211 218 227 233 238 242 245 248 251 253 258 262 266 270 273 278 284 286 283 281 281 281 282 284 284 283 284 288 294 301 305 310 315 319 321 320 320 321 323 326 328 331 331 331 333 334 335 337 338 339 340 339 339 338 336 335 333 332 331 330 328 327 325 325 325 324 322 319 317 313 310 306 301 296 292 286 282 280 279 278 277 273 269
207 211 217 223 228 233 238 242 246 248 251 254 259 263 267 270 272 275 278 278 277 277 277 278 279 281 281 282 285 289 294 298 302 308 313 316 317 318 321 323 326 329 331 331 332 333 335 338 340 341 342 342 341 340 339 338 336 335 334 333 332 331 329 328 326 325 324 324 322 319 317 313 310 308 304 300 297 293 287 282 278 277 276 274 271
213 216 221 225 229 234 238 241 244 247 250 254 258 262 266 269 270 271 272 271 272 274 274 276 277 278 280 282 285 288 290 294 299 306 310 312 315 320 324 327 329 330 331 332 333 336 339 342 343 343 343 342 341 340 339 338 337 336 335 334 333 332 331 329 328 327 325 324 323 321 318 315 312 310 306 302 300 298 295 289 283 278 275 273 272
216 219 223 227 230 234 236 238 240 243 248 252 256 261 264 266 267 267 268 268 270 271 273 274 275 276 279 280 282 283 284 290 297 302 307 312 319 325 329 330 331 331 332 334 337 340 342 343 343 343 342 341 340 340 339 338 337 336 336 335 335 335 334 334 333 332 330 328 326 325 323 319 317 315 312 307 303 301 298 294 290 284 279 274 272
215 218 222 226 229 232 233 235 239 243 248 252 255 258 260 261 264 265 267 268 268 270 271 272 274 275 276 276 275 276 280 288 295 299 308 318 325 330 332 332 332 332 334 337 340 341 342 342 342 342 342 341 341 340 339 339 338 338 339 339 340 340 340 340 339 337 335 333 332 330 329 326 323 320 318 314 309 306 302 297 293 289 285 280 275
214 218 222 226 229 232 235 238 241 243 246 248 250 253 255 258 261 263 265 267 267 270 270 271 273 271 269 269 267 271 279 286 295 304 316 326 330 332 333 333 334 335 337 339 340 340 341 341 342 342 342 342 341 340 340 341 342 343 345 346 346 346 345 344 343 341 340 339 337 336 334 333 329 326 323 319 314 311 307 302 296 291 287 284 280
216 221 225 228 230 232 234 238 241 242 244 247 250 253 255 258 260 261 264 266 266 268 268 267 267 264 262 261 261 268 278 287 299 313 324 330 331 333 334 335 336 337 339 339 340 341 341 342 343 343 343 342 342 343 344 346 349 350 351 351 351 351 350 348 346 345 344 343 341 339 338 336 334 330 327 324 319 315 312 308 302 297 292 287 283
220 224 227 229 230 231 233 236 240 244 247 249 251 253 254 255 256 258 260 262 263 264 263 261 260 257 255 253 256 267 278 291 307 320 327 329 331 334 335 337 338 338 339 339 341 342 343 344 345 344 344 344 345 349 351 352 354 354 354 355 354 354 353 351 350 348 347 346 344 342 340 340 339 336 334 332 329 326 323 318 312 306 298 290 284
222 225 228 229 230 231 234 238 242 246 249 251 251 249 248 247 249 253 255 258 259 259 257 256 253 249 246 248 256 269 282 299 314 322 325 327 331 335 335 336 337 337 339 341 343 345 346 346 346 345 346 348 350 353 355 357 358 358 358 357 357 356 355 354 353 352 350 350 347 345 343 344 344 343 341 339 336 334 332 328 322 317 309 297 285
222 226 229 229 230 235 240 244 249 252 254 255 252 246 242 241 244 248 251 253 254 252 251 249 244 239 241 251 262 272 287 306 316 320 324 328 332 335 334 335 336 338 341 344 346 347 347 346 345 347 350 352 354 356 358 360 1 1 1 0 359 358 358 357 357 356 354 353 351 349 347 347 347 346 344 341 338 337 336 332 328 325 321 311 297
225 227 228 227 229 238 246 251 255 257 258 256 249 241 237 237 241 243 245 246 246 245 243 238 232 234 245 257 264 273 292 308 314 319 324 328 331 333 332 334 337 341 345 347 348 347 346 346 347 351 354 356 358 359 0 2 2 3 4 3 2 2 2 1 1 0 359 357 355 354 351 349 347 346 344 342 340 338 336 335 332 328 327 325 315
229 229 226 226 230 239 247 255 259 261 259 253 243 234 228 230 237 238 239 241 240 236 232 225 227 238 249 255 260 272 291 305 314 318 322 326 328 330 333 337 342 347 348 348 348 347 346 347 350 354 358 359 0 1 2 3 3 4 5 5 4 4 5 6 6 5 3 0 359 356 353 349 347 345 345 343 341 340 338 337 335 330 327 330 325
233 232 229 228 232 240 248 256 260 258 253 244 233 223 221 227 234 236 235 233 231 225 220 219 229 242 247 249 255 270 289 303 312 316 319 325 328 331 338 344 348 350 350 349 348 347 347 350 354 358 0 1 1 2 3 4 4 5 6 7 7 7 7 9 10 9 7 4 1 358 354 350 347 345 346 344 343 343 341 338 335 330 326 328 329
231 232 231 229 232 239 246 254 256 249 239 230 224 218 220 227 231 231 230 226 220 214 213 222 235 239 239 243 256 276 292 305 313 316 321 327 332 338 346 351 353 352 351 350 349 349 351 354 358 2 3 1 1 3 4 5 7 7 7 8 9 9 10 11 12 11 9 7 3 0 356 352 349 348 347 348 347 346 345 341 337 332 327 326 330
229 229 228 226 227 235 243 247 244 235 226 220 220 219 220 226 228 224 220 216 210 209 216 229 235 233 235 247 264 284 297 308 313 318 327 334 340 349 355 356 356 354 352 352 353 353 356 359 3 5 4 2 3 5 7 8 9 9 9 8 10 11 12 14 15 13 11 9 5 2 359 355 354 352 351 352 352 351 350 348 345 340 331 326 331
226 225 221 218 221 227 234 235 228 222 218 215 217 220 221 224 224 217 210 206 206 213 224 232 231 229 237 255 271 289 301 308 315 323 335 344 351 358 0 360 358 355 355 357 358 358 1 5 7 7 5 4 7 9 9 10 10 11 10 10 10 11 13 15 17 16 14 12 9 5 3 0 359 358 357 357 357 356 357 356 355 352 342 336 337
231 229 217 208 216 221 221 224 219 214 212 212 216 221 221 220 216 208 202 202 208 218 225 226 227 231 242 259 277 293 301 308 320 331 343 353 0 4 4 3 1 359 1 3 3 4 8 10 10 8 7 8 11 13 12 11 12 12 12 11 11 11 12 14 16 16 15 14 12 10 8 5 5 4 3 2 2 2 1 358 356 354 351 348 344
249 240 216 198 203 212 212 216 214 209 209 212 216 218 217 213 207 202 201 205 211 217 220 220 223 232 247 264 282 293 299 312 327 342 354 1 6 8 8 8 7 6 6 8 10 12 14 15 13 11 11 14 17 18 16 14 13 14 14 12 12 13 13 14 15 15 15 14 14 14 13 11 9 9 8 6 6 8 5 -0 356 354 353 352 347
258 247 220 194 188 199 208 210 207 205 208 211 213 212 207 202 200 202 206 212 213 213 214 217 223 235 254 272 283 289 298 318 338 352 3 6 11 15 17 17 14 12 12 14 16 19 20 19 17 16 16 19 21 21 19 16 15 15 15 13 13 15 15 15 15 14 14 15 14 14 15 14 13 12 12 10 11 12 9 5 4 0 356 355 354
245 236 220 199 187 193 202 203 202 204 207 207 206 203 198 195 199 206 211 213 212 211 211 217 228 244 262 274 278 281 294 322 348 2 7 11 21 29 28 25 20 17 19 22 23 24 24 21 20 20 20 21 23 22 20 18 15 15 15 14 15 15 14 14 15 15 14 15 15 15 15 16 16 16 15 14 14 15 13 12 15 12 5 1 4
226 216 211 204 195 195 199 200 201 203 204 202 200 196 195 198 204 210 211 209 208 209 212 220 235 253 265 268 265 266 283 329 0 12 14 22 37 43 39 33 27 24 27 30 29 27 26 23 22 23 23 22 23 23 21 18 15 14 15 15 14 14 13 12 14 15 15 15 15 16 16 16 17 18 17 17 17 17 16 17 20 23 21 17 15
220 210 206 205 202 199 198 198 199 201 201 199 196 194 200 210 213 210 207 206 206 208 215 227 244 255 257 251 246 242 243 327 32 28 32 44 51 51 49 42 35 33 35 37 33 30 28 25 23 23 23 22 22 22 20 18 15 14 14 14 12 12 12 11 11 14 15 15 16 17 17 17 17 17 18 18 18 18 19 19 20 24 29 31 30
219 212 207 206 205 200 196 195 197 199 199 197 196 200 210 214 212 207 203 202 204 208 219 237 249 251 244 232 223 207 189 160 105 73 64 65 62 58 57 52 44 42 42 40 36 31 28 25 23 22 22 21 20 19 17 15 14 13 13 12 11 10 10 11 11 12 14 15 17 18 18 17 17 17 18 18 18 19 21 22 21 20 26 32 36
222 216 211 208 204 198 194 194 196 197 197 199 204 212 215 210 205 202 200 199 202 211 228 242 244 239 229 219 209 190 173 161 135 108 89 79 73 68 66 60 52 48 46 41 36 30 25 23 22 20 19 19 18 16 14 12 12 11 10 10 9 8 9 10 10 10 12 15 17 18 19 18 17 17 18 18 19 20 21 23 25 24 25 30 35
225 218 212 208 202 197 196 196 196 196 199 205 209 211 208 202 199 198 197 198 204 217 233 238 232 225 216 206 197 183 173 165 144 121 105 94 86 78 73 67 56 48 45 39 33 27 21 19 18 16 15 15 15 14 12 11 10 9 7 8 8 7 7 8 9 9 11 13 15 17 18 18 18 18 18 18 20 21 20 21 25 27 27 28 32
223 215 209 206 203 200 197 197 199 202 207 212 212 206 199 195 194 195 195 199 211 224 231 228 220 216 212 201 191 181 172 161 145 131 121 110 96 86 80 72 58 46 40 34 28 23 17 14 12 10 9 9 9 9 9 7 7 6 5 6 7 7 6 7 8 8 9 12 14 15 17 18 18 18 19 19 20 22 21 20 22 26 28 29 31
217 209 207 206 205 201 198 200 204 210 215 216 211 204 196 192 191 192 193 200 213 220 220 218 215 213 208 198 189 182 172 159 150 145 136 123 106 94 86 73 54 41 32 26 21 17 12 9 7 5 5 4 3 2 2 1 1 2 2 3 5 6 6 6 6 6 7 10 11 12 13 15 17 18 19 20 20 21 22 21 22 24 26 29 31
210 207 207 207 205 202 202 206 211 215 218 215 208 200 194 191 190 191 196 206 216 216 211 213 214 209 202 195 186 177 171 166 162 158 149 138 124 109 93 69 43 29 21 15 12 8 5 3 1 359 359 358 356 356 355 355 356 358 358 359 1 3 3 4 4 5 6 7 8 9 11 13 15 17 19 20 21 21 22 22 23 25 26 28 31
211 210 209 207 206 207 209 213 216 216 213 210 205 198 195 194 193 194 201 210 216 213 208 211 211 203 197 195 185 175 175 176 173 168 159 151 145 128 95 51 17 8 4 1 359 358 357 355 353 352 351 351 350 350 350 350 352 353 354 356 358 359 0 1 3 4 5 5 6 7 8 9 12 15 18 20 21 21 23 23 24 25 26 28 31
215 214 212 210 211 213 215 218 217 213 206 202 200 197 197 199 198 200 206 211 211 209 207 208 207 200 194 191 184 179 181 183 179 174 169 167 169 162 93 13 349 342 342 344 347 349 348 347 346 345 345 345 345 345 346 347 348 349 350 352 354 355 357 358 0 2 4 4 4 4 5 6 9 11 14 17 20 21 22 24 25 26 27 28 31
216 216 216 217 217 217 218 216 212 207 201 196 194 196 198 200 201 207 213 214 212 210 207 205 203 199 193 190 187 186 186 186 184 180 179 182 193 215 273 320 326 323 325 330 337 341 341 341 340 340 340 340 341 341 342 343 344 345 347 348 349 351 353 355 357 360 0 1 2 2 3 3 6 8 9 12 17 19 20 22 25 27 28 29 30
214 215 218 220 220 219 216 210 204 201 197 194 195 198 198 197 201 209 215 214 213 212 209 203 200 198 195 193 191 191 190 189 186 186 189 198 217 244 274 299 310 313 317 324 330 335 337 336 335 335 335 336 337 338 338 339 340 341 343 344 345 347 350 352 353 354 356 357 359 0 1 1 2 5 6 7 11 16 18 20 22 24 26 28 29
212 215 218 219 219 218 213 205 200 196 194 194 198 199 197 197 202 206 208 210 212 212 208 203 200 198 196 196 195 195 194 191 189 192 199 210 230 253 274 293 303 308 314 320 325 329 332 331 330 330 331 332 333 334 334 335 336 337 338 339 341 343 345 347 348 348 350 352 354 357 358 359 359 0 3 4 6 9 13 18 20 21 22 24 26
211 215 215 214 214 213 209 202 197 194 195 197 199 198 198 202 206 206 204 205 208 208 205 202 201 200 199 199 198 197 196 195 196 201 208 219 238 257 276 292 301 307 312 317 321 325 327 326 326 326 327 328 329 329 330 331 331 332 333 334 335 337 339 340 341 342 345 347 349 351 354 356 357 357 358 0 2 4 8 12 17 19 20 20 22
213 215 215 214 210 207 203 200 196 194 197 199 199 199 201 204 207 207 207 207 207 206 203 201 201 201 201 201 200 200 199 200 203 209 218 232 246 261 279 292 300 305 309 313 317 320 322 322 322 322 323 325 325 326 326 327 328 329 329 330 331 332 333 335 335 337 339 342 343 345 347 350 353 354 355 356 358 0 3 6 10 14 17 18 18
213 215 217 215 208 202 199 198 196 196 198 200 199 200 202 205 206 206 207 208 207 204 203 202 201 201 202 202 201 201 202 205 210 218 228 242 255 268 282 292 299 304 306 309 313 316 318 319 319 319 320 321 322 323 323 324 325 326 326 326 327 328 328 329 330 332 334 336 337 339 341 343 346 349 351 352 354 356 358 1 4 7 12 15 16
214 215 216 213 206 199 197 196 196 198 200 200 199 201 204 205 205 205 206 206 205 203 203 203 202 201 202 202 203 204 206 211 220 228 239 252 264 276 287 294 298 301 303 306 310 313 315 316 316 317 319 319 319 319 320 321 322 323 323 323 324 324 325 325 325 326 328 330 331 332 334 336 339 341 344 347 349 350 352 355 358 0 3 8 12
212 214 213 209 203 198 196 197 199 201 202 200 199 202 204 204 205 205 205 205 203 202 204 204 202 201 203 204 206 209 214 221 230 240 250 261 271 280 287 291 294 296 300 304 308 311 313 314 315 316 317 316 316 317 318 320 320 320 319 319 319 318 319 319 320 321 322 323 325 326 328 330 332 334 336 340 342 344 346 348 351 354 356 359 3
212 214 212 207 201 197 197 199 202 203 203 202 202 204 205 204 205 205 205 204 204 205 206 205 204 204 207 210 212 216 223 233 242 250 258 265 272 279 285 290 294 297 300 303 305 308 311 313 315 314 313 313 314 316 319 320 320 319 318 316 316 315 316 316 317 317 317 318 320 321 322 324 326 327 329 331 333 336 339 341 343 347 350 352 354
211 214 212 206 201 198 199 202 203 203 202 203 205 205 206 206 205 206 206 205 207 207 207 207 207 209 214 219 223 225 232 242 251 258 264 269 275 281 287 290 293 295 297 299 302 306 310 311 310 309 310 312 314 317 320 322 323 323 322 321 320 319 318 316 315 315 314 315 316 317 319 320 321 322 322 323 325 328 331 333 335 338 340 343 346
209 212 211 206 202 201 202 204 205 203 203 205 207 207 207 207 207 207 209 209 210 211 212 214 217 219 223 229 233 237 244 252 258 264 270 275 279 283 284 285 287 290 293 297 301 304 307 306 306 307 309 312 315 318 322 326 328 329 329 328 327 325 323 320 317 315 315 315 315 315 316 316 317 318 318 319 319 320 321 323 325 328 330 332 335
207 209 209 207 203 203 204 206 206 204 204 206 208 209 209 210 211 212 213 214 214 214 216 220 226 229 231 235 240 245 251 257 262 267 272 275 278 279 280 283 287 291 295 299 301 303 303 302 302 306 310 313 317 322 326 330 333 334 334 333 333 332 330 328 325 322 320 318 316 313 312 312 313 315 315 316 315 316 315 315 316 318 320 322 324
205 206 206 206 203 203 204 206 206 205 204 206 208 210 211 213 215 215 215 216 218 218 219 223 228 230 232 237 242 246 252 258 263 268 272 275 277 280 284 288 292 295 298 300 300 299 299 298 301 306 309 314 319 325 328 331 333 334 334 334 334 333 333 331 328 326 325 322 318 312 309 309 311 312 313 313 312 312 311 311 311 311 311 313 314
201 202 204 205 204 204 205 206 206 206 206 207 209 211 213 215 216 216 215 216 219 221 225 231 236 239 241 244 246 250 254 259 265 270 274 278 282 286 290 293 295 296 297 297 296 296 296 297 300 305 311 317 324 329 331 333 333 333 333 332 331 331 331 330 328 326 325 324 320 315 312 312 313 313 311 310 309 309 308 308 307 307 307 307 308
200 201 203 206 207 205 205 206 207 207 208 210 212 214 216 218 220 220 219 219 221 225 230 237 242 246 249 250 251 254 259 264 269 274 278 282 286 289 290 291 292 293 294 294 295 296 297 298 302 308 315 322 329 334 335 334 332 331 331 330 328 328 329 328 327 324 322 320 319 317 318 320 321 318 314 311 309 307 307 306 305 305 305 305 305
199 202 203 207 208 207 206 208 207 208 210 214 216 218 219 220 222 224 224 226 229 232 236 241 245 249 252 255 258 261 266 269 273 277 280 283 285 287 288 289 290 291 293 294 295 297 299 302 308 314 320 325 330 334 335 333 330 328 328 327 326 326 326 325 323 319 316 314 314 317 322 329 331 330 327 323 318 314 310 306 304 303 303 303 303
195 198 200 203 205 206 207 209 209 209 213 218 221 222 223 223 224 226 228 230 234 238 241 244 247 251 254 258 262 265 269 273 276 279 282 285 287 288 289 290 291 292 294 296 298 300 304 307 311 316 320 324 328 330 331 329 327 326 324 324 323 324 324 322 318 313 309 310 313 319 327 336 342 343 341 338 335 331 326 319 312 307 304 302 301
191 194 197 200 204 207 208 209 210 212 216 220 223 226 227 228 228 229 231 234 237 240 242 245 249 253 257 261 265 268 272 276 280 283 285 287 288 289 290 292 293 294 296 299 300 302 303 306 309 314 318 321 323 323 322 321 321 322 322 320 319 320 322 320 316 310 308 309 313 319 326 332 337 340 340 339 338 336 334 331 327 321 315 309 304
190 193 198 202 205 207 208 209 212 217 220 223 224 227 229 232 233 235 237 240 243 245 248 251 255 259 262 265 269 273 276 279 282 284 286 287 289 290 292 293 294 295 296 297 297 298 299 303 307 311 314 314 314 313 312 313 316 319 319 316 314 314 316 316 313 308 305 305 306 310 315 321 325 327 328 328 328 328 328 328 327 326 323 319 313
189 192 200 204 206 208 212 216 221 224 225 225 226 228 230 233 236 239 242 245 247 250 253 256 259 262 265 268 272 276 279 280 281 283 286 289 291 293 294 294 294 295 296 296 296 297 299 302 304 304 303 302 302 302 304 307 311 314 314 312 309 308 309 310 309 306 303 301 301 302 307 311 314 316 317 317 317 317 318 319 320 320 320 319 316
Height
3137 3139 3141 3142 3143 3145 3146 3147 3148 3148 3149 3150 3151 3151 3152 3153 3153 3153 3154 3154 3154 3153 3153 3152 3152 3151 3151 3151 3151 3150 3149 3148 3147 3146 3144 3143 3142 3141 3139 3138 3136 3135 3133 3131 3129 3127 3125 3124 3121 3119 3117 3114 3112 3109 3107 3104 3101 3098 3095 3092 3088 3084 3081 3077 3073 3072 3072 3069 3066 3064 3061 3058 3056 3054 3051 3049 3048 3045 3042 3040 3038 3037 3037 3037 3037
3137 3139 3140 3142 3143 3144 3145 3146 3147 3148 3148 3149 3149 3150 3151 3151 3151 3152 3152 3152 3152 3151 3151 3151 3150 3150 3150 3150 3149 3148 3147 3146 3145 3144 3143 3142 3140 3139 3138 3136 3135 3133 3131 3129 3127 3126 3124 3122 3120 3117 3115 3112 3110 3107 3105 3102 3099 3096 3093 3089 3086 3083 3078 3075 3070 3067 3065 3065 3062 3058 3056 3053 3050 3048 3045 3042 3041 3039 3037 3035 3032 3030 3029 3029 3029
3136 3138 3139 3141 3142 3143 3144 3145 3146 3146 3147 3147 3148 3148 3149 3149 3150 3150 3150 3150 3150 3150 3149 3149 3149 3148 3148 3148 3147 3147 3146 3144 3143 3142 3141 3140 3139 3137 3136 3135 3133 3131 3130 3128 3126 3124 3122 3120 3118 3116 3113 3111 3108 3105 3103 3100 3097 3094 3091 3087 3084 3081 3077 3072 3068 3064 3060 3058 3056 3053 3050 3047 3044 3041 3038 3035 3033 3031 3030 3029 3027 3025 3023 3021 3021
3135 3136 3138 3139 3140 3141 3142 3143 3144 3144 3144 3145 3146 3146 3147 3147 3148 3148 3148 3148 3148 3148 3147 3147 3147 3147 3146 3146 3145 3145 3144 3142 3141 3141 3140 3139 3137 3136 3134 3133 3131 3130 3128 3127 3125 3123 3121 3119 3116 3114 3112 3109 3106 3104 3101 3098 3095 3092 3089 3086 3082 3078 3075 3071 3066 3061 3057 3053 3051 3048 3044 3041 3038 3035 3032 3029 3026 3024 3022 3021 3020 3018 3017 3015 3013
3133 3134 3136 3137 3138 3139 3140 3141 3141 3141 3142 3143 3143 3144 3145 3145 3146 3146 3146 3146 3146 3146 3145 3145 3145 3145 3144 3144 3144 3143 3142 3141 3140 3140 3138 3137 3136 3134 3133 3132 3130 3128 3127 3125 3124 3122 3120 3118 3115 3113 3111 3108 3105 3103 3100 3097 3094 3091 3087 3084 3080 3077 3072 3068 3064 3059 3054 3050 3046 3043 3040 3036 3032 3030 3026 3022 3020 3018 3016 3015 3013 3011 3009 3008 3006
3132 3133 3134 3135 3136 3137 3138 3138 3139 3140 3140 3141 3142 3142 3143 3143 3143 3144 3144 3144 3144 3144 3143 3143 3143 3143 3143 3143 3142 3141 3140 3140 3139 3138 3137 3136 3134 3133 3131 3130 3129 3127 3126 3124 3122 3120 3118 3116 3114 3112 3109 3107 3104 3101 3098 3095 3092 3089 3086 3082 3078 3074 3069 3065 3061 3056 3052 3047 3043 3039 3036 3032 3028 3025 3022 3018 3013 3010 3009 3008 3007 3006 3003 3001 3000
3130 3131 3132 3133 3134 3135 3136 3137 3137 3138 3138 3139 3139 3140 3141 3141 3141 3141 3141 3142 3142 3142 3142 3141 3141 3141 3141 3141 3141 3140 3139 3139 3138 3137 3135 3134 3133 3131 3130 3129 3127 3126 3124 3123 3121 3119 3117 3115 3112 3110 3108 3105 3103 3100 3097 3094 3090 3086 3083 3078 3074 3070 3066 3062 3058 3053 3049 3044 3040 3036 3032 3029 3025 3020 3017 3014 3010 3005 3001 2999 2999 3000 2998 2995 2993
3129 3130 3131 3131 3132 3133 3134 3135 3135 3136 3136 3136 3137 3138 3138 3139 3139 3139 3139 3140 3140 3140 3140 3140 3140 3140 3140 3140 3140 3139 3138 3137 3136 3135 3134 3133 3132 3130 3129 3128 3127 3125 3123 3122 3120 3117 3115 3113 3110 3108 3106 3103 3101 3098 3094 3091 3087 3083 3079 3075 3071 3067 3063 3059 3054 3050 3045 3041 3036 3032 3029 3026 3022 3018 3013 3009 3005 3002 2998 2993 2991 2991 2991 2990 2987
3127 3129 3129 3130 3131 3132 3132 3133 3133 3134 3134 3134 3135 3135 3136 3137 3137 3137 3138 3138 3138 3138 3138 3138 3138 3139 3139 3139 3138 3138 3137 3136 3135 3134 3133 3132 3131 3130 3128 3127 3126 3124 3122 3121 3119 3116 3114 3111 3109 3106 3104 3101 3098 3094 3091 3087 3083 3080 3076 3073 3069 3065 3061 3057 3052 3047 3042 3038 3033 3028 3025 3021 3017 3013 3008 3004 3000 2996 2993 2989 2986 2984 2983 2983 2982
3126 3127 3128 3129 3130 3130 3131 3131 3132 3132 3132 3133 3133 3134 3135 3135 3135 3135 3136 3137 3137 3137 3137 3137 3137 3137 3137 3137 3137 3136 3136 3135 3134 3133 3132 3131 3130 3129 3128 3127 3125 3124 3122 3120 3118 3116 3113 3111 3108 3106 3103 3100 3096 3093 3089 3086 3083 3079 3075 3072 3068 3064 3060 3055 3050 3045 3040 3035 3030 3025 3021 3017 3013 3008 3003 3000 2996 2992 2988 2984 2980 2978 2976 2975 2975
3124 3125 3126 3127 3128 3129 3129 3130 3130 3130 3131 3131 3132 3132 3133 3133 3133 3134 3135 3135 3136 3136 3136 3136 3136 3136 3136 3136 3136 3135 3135 3134 3133 3133 3132 3131 3129 3128 3127 3126 3125 3123 3121 3119 3117 3115 3113 3111 3109 3106 3103 3099 3096 3093 3090 3087 3084 3080 3076 3072 3068 3064 3059 3054 3049 3044 3039 3034 3029 3024 3019 3014 3010 3006 3001 2996 2992 2988 2985 2980 2976 2973 2970 2967 2967
3122 3123 3124 3125 3126 3126 3127 3128 3128 3128 3129 3129 3130 3131 3131 3132 3132 3133 3133 3134 3134 3135 3135 3135 3135 3135 3135 3135 3135 3134 3134 3134 3133 3132 3131 3130 3129 3128 3127 3125 3124 3122 3120 3118 3116 3114 3113 3111 3108 3105 3102 3099 3096 3093 3090 3087 3084 3081 3078 3074 3069 3065 3060 3054 3049 3043 3038 3033 3028 3023 3018 3013 3009 3004 2999 2994 2990 2986 2982 2977 2973 2968 2965 2963 2960
3120 3120 3121 3122 3123 3124 3125 3126 3126 3126 3127 3127 3128 3129 3130 3130 3131 3131 3132 3133 3133 3133 3134 3134 3134 3134 3134 3134 3134 3134 3133 3133 3132 3131 3130 3129 3128 3127 3126 3124 3123 3121 3119 3117 3116 3114 3112 3110 3107 3104 3102 3099 3096 3094 3091 3088 3085 3082 3078 3074 3070 3066 3061 3056 3050 3045 3039 3034 3028 3023 3018 3013 3008 3003 2998 2992 2988 2983 2978 2973 2969 2964 2961 2959 2955
3117 3118 3119 3120 3121 3122 3123 3123 3124 3124 3125 3125 3126 3127 3129 3129 3129 3130 3131 3131 3132 3132 3132 3133 3133 3133 3133 3133 3133 3133 3133 3132 3131 3131 3130 3129 3127 3126 3125 3124 3122 3120 3119 3117 3115 3113 3111 3109 3106 3104 3101 3099 3097 3094 3091 3088 3085 3082 3078 3074 3070 3066 3061 3057 3051 3046 3041 3035 3030 3025 3019 3014 3009 3003 2998 2993 2987 2982 2976 2969 2965 2961 2958 2956 2952
3114 3115 3116 3117 3118 3119 3120 3121 3122 3122 3123 3124 3125 3126 3127 3128 3128 3128 3129 3129 3130 3131 3131 3132 3132 3132 3132 3133 3132 3132 3132 3131 3131 3130 3129 3127 3126 3125 3124 3122 3121 3119 3118 3116 3114 3112 3110 3108 3105 3103 3101 3099 3096 3094 3091 3088 3085 3082 3078 3075 3070 3066 3062 3057 3051 3046 3042 3037 3032 3027 3021 3016 3010 3004 2999 2993 2987 2983 2977 2970 2964 2959 2956 2953 2950
3111 3113 3113 3114 3115 3117 3118 3119 3120 3120 3121 3122 3123 3125 3126 3126 3126 3127 3128 3128 3129 3130 3131 3131 3131 3132 3132 3132 3132 3131 3131 3130 3129 3129 3128 3126 3125 3124 3123 3122 3120 3119 3117 3116 3114 3112 3109 3107 3105 3103 3101 3099 3097 3094 3091 3088 3085 3082 3078 3075 3071 3067 3063 3058 3053 3049 3044 3039 3034 3029 3024 3018 3013 3006 3000 2993 2987 2982 2977 2971 2964 2959 2955 2951 2948
3107 3108 3109 3111 3112 3114 3116 3117 3118 3119 3120 3121 3122 3123 3124 3124 3125 3125 3126 3127 3128 3129 3130 3130 3131 3131 3131 3131 3131 3130 3130 3129 3128 3127 3126 3125 3124 3123 3122 3121 3120 3119 3117 3115 3113 3111 3109 3107 3105 3103 3101 3099 3096 3094 3091 3088 3085 3082 3079 3075 3071 3067 3063 3059 3055 3051 3047 3042 3037 3032 3026 3021 3015 3008 3001 2993 2987 2981 2975 2968 2962 2957 2953 2949 2945
3104 3106 3107 3109 3111 3112 3114 3115 3116 3117 3119 3120 3121 3122 3123 3123 3123 3124 3125 3126 3127 3128 3129 3129 3130 3130 3130 3130 3130 3129 3129 3128 3127 3126 3125 3124 3123 3122 3121 3121 3119 3118 3117 3115 3113 3111 3109 3107 3105 3103 3101 3099 3096 3094 3091 3088 3085 3081 3078 3075 3071 3067 3063 3059 3055 3052 3048 3044 3039 3034 3028 3022 3015 3008 3001 2994 2988 2981 2974 2967 2961 2956 2952 2948 2944
3103 3104 3105 3105 3108 3110 3112 3113 3115 3116 3117 3119 3119 3120 3121 3122 3122 3123 3124 3125 3126 3127 3128 3128 3129 3129 3129 3129 3129 3128 3128 3127 3126 3125 3124 3123 3122 3122 3121 3120 3119 3117 3116 3114 3112 3111 3109 3107 3106 3104 3102 3099 3096 3093 3090 3087 3084 3081 3078 3075 3071 3067 3062 3058 3055 3051 3048 3044 3039 3034 3028 3022 3016 3009 3002 2996 2989 2982 2975 2969 2962 2956 2952 2948 2944
3102 3103 3103 3103 3105 3107 3110 3112 3113 3115 3116 3117 3118 3119 3120 3121 3122 3123 3124 3124 3125 3126 3127 3128 3128 3128 3128 3128 3128 3127 3126 3126 3125 3124 3123 3122 3122 3121 3120 3119 3118 3117 3115 3114 3112 3111 3110 3108 3106 3104 3102 3099 3096 3093 3091 3087 3084 3081 3078 3075 3070 3066 3063 3059 3056 3052 3048 3043 3039 3034 3029 3023 3018 3011 3004 2998 2991 2984 2979 2973 2965 2957 2953 2950 2946
3099 3101 3102 3103 3103 3105 3108 3110 3111 3113 3114 3115 3116 3117 3119 3120 3121 3122 3123 3123 3124 3125 3126 3127 3127 3128 3127 3127 3127 3126 3125 3125 3124 3123 3123 3122 3122 3121 3120 3119 3118 3116 3115 3114 3113 3112 3110 3109 3107 3105 3102 3100 3097 3094 3091 3088 3085 3082 3078 3075 3071 3067 3065 3061 3057 3053 3049 3045 3040 3035 3030 3024 3019 3012 3006 3000 2993 2987 2982 2976 2968 2961 2955 2951 2948
3098 3099 3101 3102 3102 3103 3105 3108 3109 3111 3112 3114 3115 3116 3117 3118 3119 3120 3121 3122 3123 3124 3125 3126 3126 3126 3126 3126 3125 3125 3124 3124 3123 3122 3122 3122 3121 3120 3119 3119 3118 3117 3115 3114 3113 3112 3111 3109 3107 3105 3103 3100 3097 3094 3092 3089 3087 3083 3080 3076 3073 3070 3066 3063 3059 3055 3050 3046 3041 3036 3030 3025 3019 3013 3008 3002 2995 2990 2985 2978 2972 2967 2961 2955 2950
3096 3097 3099 3100 3101 3102 3103 3106 3108 3109 3111 3112 3113 3115 3116 3117 3118 3119 3120 3121 3122 3123 3124 3125 3125 3125 3125 3125 3124 3124 3123 3123 3122 3122 3122 3121 3121 3120 3119 3118 3118 3117 3116 3115 3114 3113 3111 3109 3107 3105 3103 3100 3097 3095 3093 3090 3087 3084 3081 3078 3075 3071 3068 3064 3060 3056 3051 3046 3041 3036 3031 3025 3020 3015 3009 3004 2998 2993 2987 2981 2977 2972 2967 2961 2956
3094 3095 3097 3099 3099 3100 3102 3104 3106 3107 3109 3111 3112 3113 3114 3116 3117 3118 3119 3120 3121 3122 3123 3124 3124 3124 3124 3123 3123 3123 3122 3122 3122 3122 3121 3121 3120 3119 3119 3118 3118 3117 3116 3115 3114 3113 3111 3110 3108 3105 3103 3100 3098 3095 3093 3091 3088 3085 3082 3079 3076 3073 3069 3065 3061 3056 3052 3047 3042 3037 3032 3027 3022 3017 3012 3007 3003 2998 2992 2987 2982 2977 2971 2966 2961
3093 3094 3095 3097 3098 3099 3101 3102 3104 3106 3108 3109 3111 3112 3113 3114 3116 3117 3118 3119 3120 3121 3122 3122 3122 3122 3122 3122 3122 3122 3121 3121 3121 3121 3121 3120 3120 3119 3119 3118 3118 3117 3116 3115 3114 3113 3111 3110 3107 3105 3103 3101 3098 3096 3094 3091 3088 3086 3083 3080 3077 3073 3070 3066 3062 3057 3053 3048 3043 3039 3034 3030 3025 3021 3016 3013 3009 3004 2999 2993 2988 2983 2977 2971 2966
3091 3092 3094 3096 3097 3098 3099 3101 3102 3104 3106 3108 3109 3110 3112 3113 3115 3116 3117 3118 3119 3120 3121 3121 3121 3121 3121 3121 3121 3121 3121 3121 3120 3120 3120 3120 3119 3119 3118 3118 3118 3117 3116 3115 3114 3113 3111 3109 3107 3105 3103 3101 3099 3097 3094 3092 3089 3086 3084 3080 3077 3074 3070 3066 3062 3058 3054 3049 3045 3041 3037 3033 3030 3026 3021 3017 3012 3006 3002 2997 2992 2986 2981 2976 2971
3089 3091 3092 3094 3095 3096 3098 3099 3101 3103 3105 3106 3107 3108 3110 3112 3113 3115 3116 3117 3118 3119 3120 3120 3120 3120 3120 3120 3120 3120 3120 3120 3120 3119 3119 3119 3119 3118 3118 3118 3118 3117 3116 3115 3114 3112 3111 3109 3107 3105 3103 3101 3099 3097 3095 3093 3090 3087 3084 3081 3078 3074 3070 3066 3063 3059 3056 3051 3047 3044 3040 3037 3034 3029 3024 3019 3014 3009 3005 3000 2995 2989 2985 2981 2976
3088 3089 3091 3092 3094 3095 3096 3098 3100 3101 3103 3104 3105 3107 3109 3110 3112 3113 3115 3116 3117 3118 3119 3119 3119 3119 3119 3119 3119 3119 3119 3119 3119 3119 3119 3119 3118 3118 3118 3118 3117 3117 3116 3115 3113 3112 3111 3109 3107 3105 3103 3101 3099 3097 3095 3093 3090 3088 3085 3082 3079 3075 3072 3068 3065 3062 3058 3054 3050 3046 3043 3039 3035 3031 3026 3022 3017 3012 3008 3004 2999 2994 2990 2985 2980
3086 3088 3089 3091 3092 3093 3094 3096 3098 3099 3101 3103 3104 3106 3108 3109 3111 3112 3113 3115 3116 3117 3117 3118 3118 3118 3118 3118 3118 3118 3118 3118 3118 3118 3118 3118 3118 3118 3117 3117 3117 3116 3115 3114 3113 3112 3110 3109 3107 3105 3103 3101 3099 3097 3095 3093 3090 3088 3085 3082 3079 3076 3073 3070 3066 3063 3059 3055 3052 3048 3044 3041 3037 3033 3029 3025 3020 3016 3012 3008 3003 2999 2994 2989 2984
3084 3085 3087 3089 3090 3091 3093 3094 3096 3098 3100 3101 3103 3105 3106 3108 3109 3110 3112 3113 3114 3115 3116 3116 3116 3116 3117 3116 3116 3117 3117 3117 3117 3117 3117 3117 3117 3117 3117 3117 3116 3116 3115 3114 3113 3111 3110 3108 3107 3105 3103 3102 3100 3097 3095 3093 3090 3088 3085 3082 3079 3077 3074 3070 3067 3063 3060 3056 3053 3049 3046 3042 3039 3035 3032 3028 3024 3020 3016 3011 3007 3003 2999 2994 2989
3082 3084 3086 3087 3088 3090 3091 3093 3095 3096 3098 3100 3102 3104 3105 3107 3108 3109 3111 3112 3113 3114 3115 3115 3115 3115 3115 3115 3115 3115 3116 3116 3117 3117 3117 3117 3117 3117 3116 3116 3115 3115 3114 3113 3112 3111 3109 3108 3106 3105 3103 3101 3099 3097 3094 3092 3090 3087 3084 3082 3079 3076 3074 3071 3067 3064 3061 3057 3054 3051 3047 3044 3040 3036 3033 3030 3027 3023 3020 3016 3011 3007 3003 2999 2995
3081 3083 3085 3086 3087 3088 3090 3092 3093 3095 3096 3098 3100 3102 3104 3105 3107 3108 3109 3110 3111 3112 3113 3113 3113 3113 3113 3114 3114 3114 3115 3115 3116 3116 3116 3116 3116 3116 3115 3115 3115 3114 3114 3113 3111 3110 3108 3107 3105 3104 3102 3100 3098 3096 3093 3091 3089 3086 3084 3081 3078 3076 3073 3070 3067 3064 3061 3059 3055 3052 3048 3045 3042 3038 3035 3032 3029 3026 3023 3019 3015 3011 3007 3004 3000
3079 3081 3083 3084 3085 3087 3088 3090 3092 3093 3095 3097 3099 3101 3103 3104 3106 3107 3108 3109 3110 3111 3111 3112 3112 3112 3112 3113 3113 3114 3114 3114 3115 3115 3115 3115 3115 3115 3115 3114 3114 3114 3113 3112 3110 3109 3107 3105 3104 3102 3100 3099 3096 3094 3092 3090 3087 3085 3083 3080 3077 3075 3072 3069 3067 3064 3062 3059 3056 3053 3050 3046 3043 3040 3037 3034 3031 3028 3025 3022 3018 3014 3011 3008 3004
3077 3079 3081 3083 3084 3086 3087 3089 3090 3092 3094 3096 3098 3100 3101 3103 3104 3106 3107 3108 3109 3110 3110 3110 3110 3111 3111 3111 3112 3113 3113 3113 3113 3114 3114 3114 3114 3114 3114 3113 3113 3112 3112 3110 3109 3107 3105 3104 3102 3101 3099 3097 3095 3093 3091 3089 3086 3084 3082 3079 3077 3074 3072 3069 3067 3065 3062 3060 3057 3054 3051 3048 3044 3041 3038 3035 3032 3029 3027 3024 3021 3017 3014 3011 3008
3075 3077 3079 3080 3082 3084 3086 3087 3089 3091 3093 3095 3097 3099 3100 3101 3103 3104 3105 3106 3107 3108 3108 3109 3109 3109 3110 3110 3111 3111 3112 3112 3112 3113 3113 3113 3113 3113 3113 3112 3112 3111 3110 3109 3107 3105 3104 3102 3100 3099 3097 3095 3093 3091 3089 3087 3085 3083 3081 3079 3076 3074 3072 3069 3067 3065 3062 3060 3057 3054 3052 3049 3046 3043 3039 3036 3033 3030 3028 3025 3022 3020 3017 3014 3011
3073 3074 3077 3078 3080 3082 3084 3086 3088 3090 3092 3094 3096 3097 3098 3100 3102 3103 3104 3105 3105 3106 3106 3107 3107 3108 3109 3109 3110 3110 3111 3111 3111 3111 3112 3112 3112 3112 3111 3111 3110 3109 3108 3107 3105 3104 3102 3100 3099 3097 3095 3093 3091 3090 3088 3086 3084 3082 3079 3077 3075 3073 3071 3069 3067 3064 3062 3059 3057 3054 3052 3049 3047 3044 3041 3038 3035 3032 3029 3026 3024 3022 3019 3017 3014
3071 3073 3075 3077 3079 3080 3082 3085 3087 3088 3090 3092 3094 3095 3097 3098 3100 3101 3103 3103 3104 3104 3105 3106 3106 3107 3108 3108 3109 3109 3109 3109 3110 3110 3110 3110 3110 3110 3109 3109 3108 3108 3106 3105 3103 3102 3100 3099 3097 3095 3093 3091 3089 3088 3086 3084 3082 3080 3078 3076 3074 3071 3069 3067 3065 3063 3061 3059 3056 3054 3052 3049 3047 3044 3042 3039 3036 3034 3031 3028 3025 3023 3021 3019 3017
3069 3071 3074 3076 3077 3078 3081 3083 3085 3086 3088 3090 3092 3094 3095 3097 3098 3100 3101 3102 3102 3103 3104 3105 3105 3106 3106 3107 3107 3107 3108 3108 3108 3109 3109 3109 3109 3108 3107 3107 3106 3106 3104 3103 3101 3100 3098 3097 3095 3093 3092 3090 3087 3085 3084 3082 3080 3078 3076 3074 3072 3070 3067 3065 3063 3061 3060 3058 3056 3053 3051 3049 3046 3044 3042 3040 3037 3034 3032 3030 3027 3025 3022 3020 3018
3067 3069 3072 3074 3075 3077 3079 3081 3083 3084 3086 3088 3090 3092 3094 3095 3097 3098 3099 3100 3101 3102 3103 3103 3104 3105 3105 3105 3106 3106 3106 3107 3107 3107 3107 3107 3107 3106 3105 3105 3104 3104 3102 3101 3099 3098 3096 3095 3093 3091 3089 3087 3085 3083 3081 3080 3078 3075 3073 3071 3069 3067 3065 3063 3061 3059 3058 3056 3054 3052 3050 3048 3046 3044 3041 3039 3037 3035 3033 3030 3028 3026 3023 3021 3019
3065 3067 3070 3072 3074 3076 3078 3079 3081 3083 3085 3087 3089 3091 3093 3094 3096 3097 3098 3099 3100 3100 3101 3102 3103 3103 3104 3104 3104 3104 3105 3105 3105 3105 3105 3105 3105 3104 3103 3103 3102 3101 3100 3099 3097 3096 3095 3093 3091 3089 3087 3084 3082 3080 3079 3077 3075 3073 3071 3069 3067 3065 3063 3061 3059 3057 3055 3054 3052 3051 3049 3047 3045 3043 3041 3039 3037 3035 3033 3030 3028 3026 3024 3022 3020
3063 3065 3067 3070 3072 3074 3076 3077 3079 3082 3084 3086 3088 3090 3091 3093 3094 3095 3096 3097 3098 3099 3100 3101 3101 3102 3102 3102 3103 3103 3103 3103 3103 3103 3103 3103 3102 3102 3101 3100 3100 3099 3098 3097 3095 3094 3092 3091 3088 3086 3084 3082 3080 3078 3076 3074 3072 3070 3068 3066 3064 3062 3060 3059 3057 3055 3053 3051 3050 3048 3047 3045 3044 3042 3040 3039 3036 3034 3032 3030 3028 3026 3024 3023 3021
3060 3062 3065 3068 3070 3073 3075 3077 3079 3081 3083 3085 3087 3089 3090 3092 3093 3094 3095 3096 3097 3098 3098 3099 3100 3100 3101 3101 3101 3101 3101 3101 3101 3101 3101 3100 3100 3099 3098 3098 3097 3097 3096 3094 3093 3091 3090 3088 3086 3084 3082 3080 3078 3076 3074 3072 3070 3068 3066 3064 3062 3060 3058 3056 3054 3052 3051 3049 3047 3046 3044 3043 3042 3040 3039 3037 3035 3034 3032 3030 3028 3026 3024 3023 3021
3058 3060 3063 3066 3069 3071 3074 3076 3078 3080 3082 3084 3086 3088 3089 3090 3091 3092 3093 3094 3095 3096 3097 3097 3098 3099 3099 3099 3099 3099 3099 3099 3099 3099 3099 3098 3097 3097 3096 3096 3095 3094 3093 3092 3090 3089 3087 3086 3084 3082 3080 3078 3076 3074 3072 3070 3068 3066 3064 3062 3060 3058 3056 3053 3051 3049 3048 3046 3045 3043 3042 3040 3039 3038 3036 3035 3034 3032 3031 3029 3027 3025 3024 3022 3020
3055 3058 3060 3063 3066 3069 3072 3074 3076 3078 3080 3082 3084 3086 3088 3089 3090 3091 3092 3093 3094 3094 3095 3096 3096 3097 3097 3097 3097 3097 3097 3097 3097 3096 3096 3095 3095 3094 3093 3093 3092 3091 3090 3089 3088 3086 3085 3083 3081 3079 3078 3076 3074 3072 3070 3068 3066 3064 3062 3059 3057 3055 3053 3051 3049 3047 3045 3043 3042 3040 3039 3038 3036 3035 3034 3032 3031 3030 3029 3027 3026 3024 3023 3021 3019
3053 3055 3058 3060 3063 3066 3069 3072 3074 3076 3078 3080 3082 3084 3086 3087 3088 3089 3090 3091 3092 3092 3093 3094 3094 3095 3095 3095 3095 3095 3094 3094 3094 3094 3093 3093 3092 3091 3090 3089 3089 3088 3087 3086 3085 3083 3082 3080 3078 3077 3075 3073 3072 3070 3068 3066 3064 3062 3059 3057 3055 3053 3051 3049 3047 3045 3043 3041 3039 3037 3036 3035 3034 3033 3031 3030 3028 3027 3026 3025 3023 3022 3021 3019 3018
3050 3052 3055 3058 3061 3064 3067 3070 3073 3075 3077 3078 3080 3082 3084 3086 3087 3088 3089 3089 3090 3090 3091 3092 3092 3092 3092 3092 3092 3092 3091 3091 3091 3091 3090 3090 3089 3088 3087 3087 3086 3085 3084 3083 3081 3080 3078 3077 3075 3073 3072 3070 3069 3067 3066 3064 3062 3060 3058 3055 3053 3051 3049 3047 3044 3042 3041 3039 3037 3035 3034 3033 3031 3030 3028 3027 3025 3024 3023 3022 3020 3019 3018 3017 3015
3049 3051 3054 3057 3060 3063 3066 3068 3070 3073 3075 3077 3079 3080 3082 3084 3085 3086 3086 3087 3087 3088 3089 3089 3090 3090 3090 3090 3089 3089 3088 3088 3088 3088 3087 3087 3086 3085 3084 3084 3083 3082 3081 3079 3078 3076 3074 3073 3071 3070 3068 3067 3066 3064 3063 3062 3060 3058 3056 3053 3051 3049 3046 3044 3042 3040 3038 3037 3035 3033 3032 3031 3029 3028 3026 3024 3023 3021 3020 3019 3018 3016 3015 3014 3013
3047 3049 3052 3055 3058 3061 3064 3066 3069 3071 3073 3075 3077 3079 3080 3082 3083 3083 3084 3084 3085 3086 3086 3087 3087 3087 3087 3087 3086 3086 3085 3085 3085 3085 3084 3083 3083 3082 3081 3080 3079 3078 3077 3075 3074 3072 3070 3069 3068 3066 3065 3063 3062 3061 3060 3059 3057 3056 3054 3051 3049 3047 3044 3042 3040 3038 3036 3035 3033 3032 3030 3029 3028 3026 3025 3023 3021 3020 3018 3017 3015 3014 3012 3011 3010
3045 3048 3051 3053 3056 3059 3062 3064 3067 3069 3071 3073 3074 3076 3077 3079 3080 3081 3081 3082 3083 3083 3084 3084 3084 3084 3084 3084 3083 3083 3082 3082 3082 3081 3081 3080 3079 3078 3077 3076 3075 3074 3072 3071 3070 3068 3067 3066 3064 3063 3062 3060 3059 3058 3056 3055 3054 3053 3052 3049 3047 3045 3043 3040 3038 3036 3034 3032 3031 3030 3029 3027 3026 3025 3023 3021 3020 3018 3016 3015 3013 3012 3010 3009 3008
3044 3047 3049 3052 3054 3057 3059 3062 3064 3067 3068 3070 3072 3073 3074 3076 3077 3078 3078 3079 3080 3080 3081 3081 3081 3081 3081 3081 3080 3080 3079 3079 3078 3078 3077 3076 3076 3075 3074 3072 3071 3070 3068 3067 3066 3065 3064 3063 3061 3060 3059 3058 3056 3055 3053 3052 3051 3050 3049 3047 3045 3043 3041 3039 3036 3034 3032 3030 3029 3027 3026 3025 3024 3023 3021 3019 3017 3016 3014 3012 3011 3009 3008 3006 3005
3042 3045 3048 3050 3053 3055 3057 3059 3062 3064 3066 3067 3069 3070 3071 3073 3074 3075 3076 3076 3077 3077 3078 3078 3078 3078 3078 3077 3077 3076 3075 3075 3074 3074 3073 3073 3072 3071 3069 3068 3067 3066 3065 3064 3063 3062 3060 3059 3058 3057 3056 3055 3053 3052 3050 3049 3048 3047 3046 3044 3042 3040 3038 3036 3034 3033 3031 3028 3026 3024 3023 3022 3021 3019 3018 3016 3015 3013 3011 3009 3008 3006 3005 3003 3002